Weather History for Linden, NJ

Change the Weather History Date:

Thursday, October 4, 2012

  Actual Average (KEWR) Record (KEWR)
Temperature  
Mean Temperature 70 °F 61 °F  
Max Temperature 75 °F 70 °F 89 °F (2013)
Min Temperature 66 °F 52 °F 33 °F (1945)
Degree Days  
Heating Degree Days 0 5  
Month to date heating degree days 19  
Since 1 July heating degree days 64  
Cooling Degree Days 6 1  
Month to date cooling degree days 5  
Year to date cooling degree days 1179  
Growing Degree Days 20 (Base 50)    
Moisture  
Dew Point 69 °F    
Average Humidity 91    
Maximum Humidity 97    
Minimum Humidity 77    
Precipitation  
Precipitation 0.04 in 0.11 in 0.93 in (2006)
Month to date precipitation 0.47  
Year to date precipitation 35.66  
Snow  
Snow 0.00 in 0.00 in 0.00 in (2002)
Month to date snowfall 0.0  
Since 1 July snowfall 0.0  
Snow Depth -    
Sea Level Pressure  
Sea Level Pressure 30.09 in    
Wind  
Wind Speed 1 mph (South)    
Max Wind Speed 7 mph    
Max Gust Speed -    
Visibility 4 miles    
Events Fog , Rain    
T = Trace of Precipitation, MM = Missing Value Source: NWS Daily Summary

Daily Weather History Graph

Daily Weather History Graph

Search for Another Location

Airport:

Trip Planner

Search our weather history database for the weather conditions in past years. The results will help you decide how hot, cold, wet, or windy it might be!

Date:

Astronomy

Oct. 04, 2012 Rise Set
Actual Time 6:56 AM EDT 6:33 PM EDT
Civil Twilight 6:29 AM EDT 7:00 PM EDT
Nautical Twilight 5:58 AM EDT 7:32 PM EDT
Astronomical Twilight 5:26 AM EDT 8:04 PM EDT
Moon 9:05 PM EDT (10/4) 11:13 AM EDT (10/4)
Length of Visible Light 12h 30m
Length of Day
11h 36m
Waning Gibbous, 82% of the Moon is Illuminated
Oct 4
Waning Gibbous
Oct 8
Last Quarter
Oct 15
New
Oct 21
First Quarter
Oct 29
Full

Hourly Weather History & Observations

Time (EDT) Temp. Dew Point Humidity Pressure Visibility Wind Dir Wind Speed Gust Speed Precip Events Conditions
12:15 AM 71.8 °F 70.2 °F 95% 30.12 in 3.0 mi WNW 3.5 mph - N/A   Overcast
12:35 AM 71.4 °F 69.8 °F 95% 30.12 in 3.0 mi Calm Calm - N/A   Mostly Cloudy
12:55 AM 71.2 °F 69.8 °F 95% 30.12 in 3.0 mi Calm Calm - N/A   Clear
1:15 AM 71.1 °F 69.6 °F 95% 30.13 in 4.0 mi WNW 3.5 mph - N/A   Mostly Cloudy
1:35 AM 70.7 °F 69.3 °F 95% 30.12 in 4.0 mi Calm Calm - N/A   Scattered Clouds
1:55 AM 70.7 °F 69.1 °F 95% 30.13 in 5.0 mi Calm Calm - N/A   Clear
2:15 AM 70.3 °F 68.9 °F 95% 30.12 in 4.0 mi Calm Calm - N/A   Clear
2:35 AM 70.3 °F 68.9 °F 95% 30.12 in 4.0 mi Calm Calm - N/A   Clear
2:55 AM 70.0 °F 68.5 °F 95% 30.12 in 4.0 mi Calm Calm - N/A   Clear
3:15 AM 69.6 °F 68.4 °F 96% 30.12 in 3.0 mi Calm Calm - N/A   Clear
3:35 AM 69.8 °F 68.2 °F 95% 30.12 in 4.0 mi Calm Calm - N/A   Clear
3:55 AM 69.8 °F 68.2 °F 95% 30.12 in 4.0 mi Calm Calm - N/A   Clear
4:15 AM 69.3 °F 68.0 °F 96% 30.12 in 3.0 mi Calm Calm - N/A   Clear
4:35 AM 69.3 °F 68.0 °F 96% 30.11 in 4.0 mi Calm Calm - N/A   Scattered Clouds
4:55 AM 69.4 °F 68.2 °F 96% 30.12 in 4.0 mi Calm Calm - N/A   Clear
5:15 AM 69.4 °F 68.2 °F 96% 30.12 in 4.0 mi Calm Calm - N/A   Clear
5:35 AM 68.9 °F 67.6 °F 96% 30.12 in 3.0 mi Calm Calm - N/A   Clear
5:55 AM 68.9 °F 67.8 °F 96% 30.12 in 5.0 mi Calm Calm - N/A   Clear
6:15 AM 68.9 °F 67.5 °F 95% 30.12 in 5.0 mi Calm Calm - N/A   Clear
6:35 AM 68.9 °F 67.6 °F 96% 30.13 in 7.0 mi Calm Calm - N/A   Clear
6:55 AM 68.9 °F 67.8 °F 96% 30.13 in 7.0 mi Calm Calm - N/A   Clear
7:15 AM 68.9 °F 67.5 °F 95% 30.12 in 5.0 mi Calm Calm - N/A   Clear
7:35 AM 68.9 °F 67.5 °F 95% 30.13 in 5.0 mi Calm Calm - N/A   Clear
7:55 AM 69.4 °F 68.0 °F 95% 30.12 in 5.0 mi Calm Calm - N/A   Clear
8:15 AM 70.2 °F 68.4 °F 94% 30.12 in 5.0 mi Calm Calm - N/A   Clear
8:35 AM 70.3 °F 68.4 °F 93% 30.13 in 5.0 mi WNW 3.5 mph - N/A   Clear
8:55 AM 70.7 °F 68.5 °F 93% 30.12 in 5.0 mi Calm Calm - N/A   Scattered Clouds
9:15 AM 71.1 °F 68.9 °F 93% 30.13 in 5.0 mi Calm Calm - N/A   Mostly Cloudy
9:35 AM 71.6 °F 69.1 °F 92% 30.13 in 5.0 mi Calm Calm - N/A   Overcast
9:55 AM 72.1 °F 69.3 °F 91% 30.14 in 5.0 mi Calm Calm - N/A   Mostly Cloudy
10:15 AM 72.9 °F 69.4 °F 89% 30.13 in 5.0 mi Calm Calm - N/A   Scattered Clouds
10:35 AM 73.8 °F 69.3 °F 86% 30.13 in 7.0 mi WNW 3.5 mph - N/A   Mostly Cloudy
10:55 AM 73.6 °F 68.9 °F 85% 30.12 in 7.0 mi Calm Calm - N/A   Overcast
11:15 AM 74.3 °F 69.1 °F 84% 30.11 in 5.0 mi Calm Calm - 0.01 in Rain Light Rain
11:35 AM 73.9 °F 69.6 °F 86% 30.09 in 4.0 mi SE 4.6 mph - 0.01 in   Mostly Cloudy
11:55 AM 74.3 °F 70.0 °F 86% 30.10 in 5.0 mi Calm Calm - 0.01 in   Scattered Clouds
12:15 PM 75.2 °F 70.0 °F 84% 30.10 in 5.0 mi South 3.5 mph - N/A   Haze
12:35 PM 74.8 °F 69.6 °F 84% 30.11 in 5.0 mi SSE 4.6 mph - N/A   Haze
12:55 PM 75.0 °F 69.3 °F 82% 30.10 in 7.0 mi SSE 3.5 mph - N/A   Scattered Clouds
1:15 PM 75.2 °F 68.9 °F 81% 30.09 in 7.0 mi Calm Calm - N/A Rain Light Rain
1:35 PM 75.2 °F 68.4 °F 79% 30.09 in 7.0 mi SSE 3.5 mph - N/A   Clear
1:55 PM 75.6 °F 68.0 °F 77% 30.08 in 7.0 mi SSE 3.5 mph - N/A   Clear
2:35 PM 75.6 °F 68.5 °F 79% 30.06 in 7.0 mi ESE 4.6 mph - N/A   Clear
2:55 PM 75.6 °F 68.9 °F 80% 30.06 in 7.0 mi SE 3.5 mph - N/A   Clear
3:15 PM 75.6 °F 68.9 °F 80% 30.07 in 5.0 mi South 3.5 mph - N/A   Haze
3:35 PM 75.9 °F 69.3 °F 80% 30.06 in 5.0 mi SSE 5.8 mph - N/A   Haze
3:55 PM 75.4 °F 69.1 °F 81% 30.05 in 5.0 mi SSE 4.6 mph - N/A   Haze
4:15 PM 74.5 °F 68.9 °F 83% 30.05 in 5.0 mi SSE 4.6 mph - N/A   Haze
4:35 PM 74.1 °F 68.9 °F 84% 30.05 in 5.0 mi SSE 6.9 mph - N/A   Haze
4:55 PM 72.9 °F 68.9 °F 87% 30.05 in 4.0 mi South 4.6 mph - N/A   Clear
5:15 PM 72.7 °F 69.1 °F 88% 30.04 in 3.0 mi SSE 5.8 mph - N/A   Scattered Clouds
5:35 PM 72.3 °F 69.1 °F 89% 30.05 in 2.5 mi Calm Calm - N/A Rain Rain
5:55 PM 72.0 °F 69.4 °F 92% 30.05 in 2.0 mi Calm Calm - 0.01 in Rain Light Rain
6:15 PM 71.6 °F 69.4 °F 93% 30.04 in 1.8 mi Calm Calm - 0.01 in Rain Light Rain
6:35 PM 71.4 °F 69.4 °F 93% 30.04 in 1.5 mi SSE 3.5 mph - 0.01 in   Mist
6:55 PM 70.9 °F 69.1 °F 94% 30.04 in 2.5 mi Calm Calm - 0.01 in   Scattered Clouds
7:15 PM 70.7 °F 69.1 °F 95% 30.04 in 2.0 mi Calm Calm - N/A   Mist
7:35 PM 70.2 °F 68.9 °F 96% 30.04 in 0.8 mi Calm Calm - N/A   Mist
7:55 PM 69.8 °F 68.4 °F 95% 30.05 in 0.2 mi Calm Calm - N/A Fog Fog
8:15 PM 69.1 °F 68.2 °F 97% 30.05 in 0.2 mi Calm Calm - N/A Fog Fog
8:35 PM 69.1 °F 68.0 °F 96% 30.05 in 2.0 mi Calm Calm - N/A   Mostly Cloudy
8:55 PM 68.9 °F 67.8 °F 96% 30.06 in 4.0 mi WNW 5.8 mph - N/A   Clear
9:15 PM 69.4 °F 68.4 °F 96% 30.06 in 4.0 mi WNW 4.6 mph - N/A   Clear
9:35 PM 68.5 °F 67.5 °F 96% 30.06 in 4.0 mi Calm Calm - N/A   Clear
9:55 PM 68.9 °F 67.8 °F 96% 30.07 in 5.0 mi Calm Calm - N/A   Clear
10:15 PM 68.2 °F 67.1 °F 96% 30.07 in 5.0 mi NW 4.6 mph - 0.01 in   Clear
10:35 PM 68.0 °F 66.9 °F 96% 30.07 in 5.0 mi Calm Calm - 0.01 in   Clear
10:55 PM 68.0 °F 67.1 °F 97% 30.07 in 5.0 mi Calm Calm - 0.01 in   Clear
11:15 PM 67.6 °F 66.6 °F 96% 30.07 in 4.0 mi Calm Calm - N/A   Clear
11:35 PM 66.6 °F 65.5 °F 96% 30.06 in 1.8 mi Calm Calm - N/A   Mist
11:55 PM 66.2 °F 65.1 °F 96% 30.06 in 2.0 mi Calm Calm - N/A   Clear